Location: Chavannes
(47.1090°N, 0.2226°W)
Time: 04:25:10
(UTC+00:00)

Cosmos 1300 - Pass Details

Date: 16 October 2021
Orbit: 509 x 512 km, 82.5° (Epoch: 03 December)

Event Time Altitude Azimuth Distance (km) Brightness Sun altitude
Rises 18:29:30 0° 161° (SSE) 2,614 6.1 -14.0°
Reaches altitude 10° 18:31:49 10° 149° (SSE) 1,733 5.0 -14.4°
Enters shadow 18:33:18 19° 133° (SE) 1,263 4.2 -14.7°
Exits shadow 18:37:34 14° 39° (NE) 1,482 4.7 -15.4°
Drops below altitude 10° 18:38:21 10° 31° (NNE) 1,746 5.1 -15.5°
Sets 18:40:41 0° 20° (NNE) 2,638 6.1 -15.9°
